Content
SEND FEEDBACK

Daily
Averages
Monthly
Summary
Philippines

CAVITE, PHILIPPINES


Home > Asia > Philippines
Elevation: 13 feet     Latitude: 14 30N     Longitude: 120 55E

WEATHER
 
SELECT A DAY
Number of Records: 172,358;   Date Range: 7/1/96 - 7/20/14
 
SHARE

PRINT THIS DATA

[ ← Previous Day ]
WEATHER ALMANAC - FEBRUARY 10, 2013
[ Next Day → ]
[ °C ]   °F
Weather ElementAverageHighLow
Temperature81.5 °F89 °F (2:00 pm)75 °F (5:00 am)
Dewpoint69.9 °F72 °F (2:00 am)68 °F (9:00 am)
Humidity67 %89 % (3:00 am)43 % (2:00 pm)
Barometer29.91 in29.97 in (8:00 am)29.83 in (3:00 pm)
Wind Speed6.9 mph15 mph (4:00 pm)
Wind Gust24.2 mph (3:00 pm)
Weather ElementAverage
Visibility6.1 mi
Wind DirectionE (87.7 °)

Weather ElementTotal
Precipitation---
Cooling Degree Days17 (Base 65)
Growing Degree Days32 (Base 50)
Averaged from 31 records on February 10, 2013
WEATHER CONDITIONS BREAKOUT
WIND DIRECTION BREAKOUT
WEATHER BY HOUR - FEBRUARY 10, 2013
[ °C ]   °F
Local TimeTemperatureDewpointHumidityBarometerVisibilityWind DirectionWind SpeedGust SpeedPrecipitationEventsConditions
1:00 AM78.8 °F71.6 °F78 %29.92 in6.2 miSE (130°)4.6 mphPartly Cloudy
2:00 AM77.0 °F72.0 °F79 %29.91 in6.0 miSE (130°)2.2 mphHaze
2:00 AM77.0 °F71.6 °F83 %29.92 in6.2 miSE (130°)3.5 mphPartly Cloudy
3:00 AM75.2 °F71.6 °F89 %29.89 in6.2 miNNE (30°)2.3 mphPartly Cloudy
4:00 AM75.2 °F71.6 °F89 %29.89 in6.2 miVariable2.3 mphPartly Cloudy
5:00 AM75.0 °F70.0 °F79 %29.92 in6.0 miCalmHaze
5:00 AM75.2 °F69.8 °F83 %29.92 in6.2 miEast (100°)1.2 mphPartly Cloudy
6:00 AM75.2 °F69.8 °F83 %29.92 in6.2 miVariable1.2 mphPartly Cloudy
7:00 AM75.2 °F69.8 °F83 %29.95 in6.2 miVariable2.3 mphPartly Cloudy
8:00 AM81.0 °F70.0 °F61 %29.97 in6.0 miESE (110°)4.5 mphHaze
8:00 AM80.6 °F69.8 °F70 %29.95 in6.2 miESE (110°)4.6 mphPartly Cloudy
9:00 AM82.4 °F68.0 °F62 %29.95 in6.2 miENE (60°)3.5 mphPartly Cloudy
10:00 AM86.0 °F68.0 °F55 %29.95 in6.2 miEast (90°)6.9 mphPartly Cloudy
11:00 AM87.0 °F69.0 °F45 %29.95 in6.0 miSSE (160°)4.5 mphPartly Cloudy
11:00 AM87.8 °F69.8 °F55 %29.95 in6.2 miVariable2.3 mphPartly Cloudy
12:00 PM87.8 °F69.8 °F55 %29.92 in6.2 miVariable5.8 mphPartly Cloudy
1:00 PM87.8 °F69.8 °F55 %29.89 in6.2 miVariable4.6 mphPartly Cloudy
2:00 PM89.0 °F70.0 °F43 %29.87 in6.0 miSE (130°)13.4 mphPartly Cloudy
2:00 PM87.8 °F69.8 °F55 %29.86 in6.2 miSE (130°)12.7 mphPartly Cloudy
3:00 PM87.8 °F69.8 °F55 %29.83 in6.2 miESE (120°)12.7 mph24.2 mphPartly Cloudy
4:00 PM87.8 °F69.8 °F55 %29.83 in6.2 miESE (110°)15.0 mphPartly Cloudy
5:00 PM84.0 °F69.0 °F52 %29.86 in6.0 miESE (110°)13.4 mphPartly Cloudy
5:00 PM84.2 °F69.8 °F62 %29.86 in6.2 miESE (110°)13.8 mphScattered Clouds
6:00 PM82.4 °F68.0 °F62 %29.86 in6.2 miEast (100°)10.4 mphPartly Cloudy
7:00 PM82.4 °F69.8 °F66 %29.89 in6.2 miEast (100°)8.1 mphPartly Cloudy
8:00 PM80.0 °F71.0 °F67 %29.90 in6.0 miESE (110°)8.9 mphScattered Clouds
8:00 PM80.6 °F71.6 °F74 %29.89 in6.2 miESE (110°)8.1 mphPartly Cloudy
9:00 PM80.6 °F68.0 °F65 %29.92 in6.2 miESE (110°)8.1 mphPartly Cloudy
10:00 PM78.8 °F69.8 °F74 %29.92 in6.2 miESE (120°)10.4 mphPartly Cloudy
11:00 PM79.0 °F70.0 °F68 %29.94 in6.0 miESE (110°)11.2 mphScattered Clouds
11:00 PM78.8 °F69.8 °F74 %29.92 in6.2 miESE (110°)10.4 mphPartly Cloudy
Hourly data recorded from RPLL, located miles away from Cavite, Philippines







STORIES FROM OUR PARTNERS